| time (UTC) | temp F | wind direction | speed MPH | gust MPH | rain 1hr in | rain 24hr in | rain mn in | humidity % | barometer mb |
| 20260507144021 | 57 | 271 | 9.0 | 19.0 | 0.00 | 0.00 | 0.00 | 64 | 1015.5 |
| 20260507143520 | 56 | 271 | 10.0 | 19.0 | 0.00 | 0.00 | 0.00 | 64 | 1015.5 |
| 20260507143042 | 56 | 250 | 10.0 | 15.0 | 0.00 | 0.00 | 0.00 | 66 | 1015.5 |
| 20260507142522 | 56 | 253 | 10.0 | 15.0 | 0.00 | 0.00 | 0.00 | 67 | 1015.5 |
| 20260507142023 | 55 | 245 | 8.0 | 14.0 | 0.00 | 0.00 | 0.00 | 67 | 1015.6 |
| 20260507141543 | 55 | 250 | 8.0 | 14.0 | 0.00 | 0.00 | 0.00 | 68 | 1015.6 |
| 20260507141024 | 55 | 277 | 7.0 | 13.0 | 0.00 | 0.00 | 0.00 | 70 | 1015.6 |
| 20260507140524 | 54 | 242 | 8.0 | 13.0 | 0.00 | 0.00 | 0.00 | 70 | 1015.7 |
| 20260507140036 | 54 | 237 | 6.0 | 13.0 | 0.00 | 0.00 | 0.00 | 73 | 1015.6 |
| 20260507135521 | 53 | 250 | 7.0 | 13.0 | 0.00 | 0.00 | 0.00 | 75 | 1015.9 |
| 20260507135021 | 53 | 340 | 6.0 | 11.0 | 0.00 | 0.00 | 0.00 | 77 | 1015.8 |
| 20260507134540 | 52 | 254 | 6.0 | 11.0 | 0.00 | 0.00 | 0.00 | 79 | 1015.8 |
| 20260507134024 | 52 | 259 | 5.0 | 12.0 | 0.00 | 0.00 | 0.00 | 82 | 1015.8 |
| 20260507133521 | 51 | 258 | 6.0 | 12.0 | 0.00 | 0.00 | 0.00 | 85 | 1015.9 |
| 20260507133039 | 50 | 240 | 6.0 | 9.0 | 0.00 | 0.00 | 0.00 | 87 | 1016.0 |
| 20260507132524 | 50 | 259 | 4.0 | 9.0 | 0.00 | 0.00 | 0.00 | 89 | 1016.0 |
| 20260507132020 | 49 | 240 | 3.0 | 7.0 | 0.00 | 0.00 | 0.00 | 90 | 1016.0 |
| 20260507131538 | 48 | 251 | 3.0 | 7.0 | 0.00 | 0.00 | 0.00 | 91 | 1016.1 |
| 20260507131021 | 48 | 265 | 4.0 | 7.0 | 0.00 | 0.00 | 0.00 | 91 | 1016.0 |
| 20260507130522 | 47 | 232 | 2.0 | 7.0 | 0.00 | 0.00 | 0.00 | 91 | 1016.0 |
| 20260507130049 | 46 | 211 | 2.0 | 4.0 | 0.00 | 0.00 | 0.00 | 91 | 1016.0 |
| 20260507125522 | 46 | 192 | 1.0 | 4.0 | 0.00 | 0.00 | 0.00 | 91 | 1015.9 |
| 20260507125021 | 45 | 205 | 1.0 | 4.0 | 0.00 | 0.00 | 0.00 | 91 | 1015.9 |
| 20260507124555 | 44 | 205 | 2.0 | 4.0 | 0.00 | 0.00 | 0.00 | 91 | 1015.9 |
| 20260507124021 | 43 | 201 | 2.0 | 3.0 | 0.00 | 0.00 | 0.00 | 90 | 1015.8 |
| 20260507123525 | 42 | 204 | 1.0 | 4.0 | 0.00 | 0.00 | 0.00 | 90 | 1015.8 |
| 20260507123036 | 42 | 225 | 1.0 | 4.0 | 0.00 | 0.00 | 0.00 | 89 | 1015.9 |
| 20260507122520 | 41 | 0 | 1.0 | 3.0 | 0.00 | 0.00 | 0.00 | 89 | 1015.9 |
| 20260507122021 | 41 | 248 | 1.0 | 3.0 | 0.00 | 0.00 | 0.00 | 88 | 1015.8 |
| 20260507121540 | 41 | 249 | 1.0 | 3.0 | 0.00 | 0.00 | 0.00 | 87 | 1015.7 |
| 20260507121021 | 41 | 249 | 1.0 | 3.0 | 0.00 | 0.00 | 0.00 | 87 | 1015.8 |
| 20260507120524 | 41 | 249 | 1.0 | 3.0 | 0.00 | 0.00 | 0.00 | 87 | 1015.7 |
| 20260507120039 | 41 | 249 | 1.0 | 3.0 | 0.00 | 0.00 | 0.00 | 86 | 1015.6 |
| 20260507115521 | 41 | 250 | 1.0 | 2.0 | 0.00 | 0.00 | 0.00 | 86 | 1015.5 |
| 20260507115026 | 41 | 250 | 1.0 | 2.0 | 0.00 | 0.00 | 0.00 | 86 | 1015.4 |
| 20260507114546 | 41 | 250 | 1.0 | 3.0 | 0.00 | 0.00 | 0.00 | 86 | 1015.3 |
| 20260507114021 | 41 | 250 | 1.0 | 3.0 | 0.00 | 0.00 | 0.00 | 86 | 1015.4 |
| 20260507113521 | 41 | 250 | 1.0 | 3.0 | 0.00 | 0.00 | 0.00 | 86 | 1015.3 |
| 20260507113037 | 41 | 291 | 1.0 | 3.0 | 0.00 | 0.00 | 0.00 | 85 | 1015.3 |
| 20260507112521 | 41 | 291 | 1.0 | 3.0 | 0.00 | 0.00 | 0.00 | 85 | 1015.3 |
| 20260507112020 | 42 | 291 | 1.0 | 2.0 | 0.00 | 0.00 | 0.00 | 84 | 1015.4 |
| 20260507111537 | 42 | 0 | 1.0 | 2.0 | 0.00 | 0.00 | 0.00 | 84 | 1015.3 |
| 20260507111021 | 42 | 291 | 1.0 | 3.0 | 0.00 | 0.00 | 0.00 | 84 | 1015.2 |
| 20260507110521 | 42 | 291 | 1.0 | 3.0 | 0.00 | 0.00 | 0.00 | 84 | 1015.3 |
| 20260507110043 | 42 | 0 | 0.0 | 0.0 | 0.00 | 0.00 | 0.00 | 83 | 1015.2 |
| 20260507105520 | 42 | 0 | 0.0 | 0.0 | 0.00 | 0.00 | 0.00 | 83 | 1015.3 |
| 20260507105021 | 43 | 0 | 0.0 | 0.0 | 0.00 | 0.00 | 0.00 | 83 | 1015.4 |
| 20260507104548 | 43 | 0 | 0.0 | 2.0 | 0.00 | 0.00 | 0.00 | 83 | 1015.4 |
| 20260507104024 | 43 | 0 | 0.0 | 2.0 | 0.00 | 0.00 | 0.00 | 83 | 1015.4 |
| 20260507103521 | 43 | 0 | 0.0 | 3.0 | 0.00 | 0.00 | 0.00 | 83 | 1015.5 |
| 20260507103038 | 43 | 291 | 2.0 | 3.0 | 0.00 | 0.00 | 0.00 | 82 | 1015.6 |
| 20260507102521 | 44 | 291 | 1.0 | 3.0 | 0.00 | 0.00 | 0.00 | 82 | 1015.5 |
| 20260507102021 | 44 | 291 | 1.0 | 2.0 | 0.00 | 0.00 | 0.00 | 82 | 1015.6 |
| 20260507101539 | 44 | 291 | 1.0 | 3.0 | 0.00 | 0.00 | 0.00 | 81 | 1015.5 |
| 20260507101021 | 44 | 291 | 1.0 | 3.0 | 0.00 | 0.00 | 0.00 | 80 | 1015.6 |
| 20260507100520 | 44 | 291 | 1.0 | 3.0 | 0.00 | 0.00 | 0.00 | 79 | 1015.6 |
| 20260507100039 | 45 | 291 | 1.0 | 3.0 | 0.00 | 0.00 | 0.00 | 78 | 1015.6 |
| 20260507095521 | 45 | 292 | 2.0 | 3.0 | 0.00 | 0.00 | 0.00 | 79 | 1015.7 |
| 20260507095022 | 45 | 286 | 1.0 | 3.0 | 0.00 | 0.00 | 0.00 | 79 | 1015.7 |
| 20260507094537 | 46 | 286 | 1.0 | 3.0 | 0.00 | 0.00 | 0.00 | 79 | 1015.7 |
| 20260507094022 | 46 | 286 | 1.0 | 3.0 | 0.00 | 0.00 | 0.00 | 78 | 1015.8 |
| 20260507093522 | 46 | 0 | 1.0 | 3.0 | 0.00 | 0.00 | 0.00 | 76 | 1015.7 |
| 20260507093040 | 46 | 286 | 0.0 | 3.0 | 0.00 | 0.00 | 0.00 | 75 | 1015.8 |
| 20260507092521 | 47 | 0 | 0.0 | 0.0 | 0.00 | 0.00 | 0.00 | 75 | 1015.7 |
| 20260507092020 | 47 | 0 | 0.0 | 0.0 | 0.00 | 0.00 | 0.00 | 75 | 1015.7 |
| 20260507091543 | 47 | 0 | 0.0 | 0.0 | 0.00 | 0.00 | 0.00 | 75 | 1015.7 |
| 20260507091021 | 48 | 0 | 0.0 | 0.0 | 0.00 | 0.00 | 0.00 | 75 | 1015.7 |
| 20260507090521 | 48 | 0 | 0.0 | 0.0 | 0.00 | 0.00 | 0.00 | 75 | 1015.6 |
| 20260507090037 | 48 | 0 | 0.0 | 0.0 | 0.00 | 0.00 | 0.00 | 76 | 1015.6 |
| 20260507085520 | 48 | 0 | 0.0 | 0.0 | 0.00 | 0.00 | 0.00 | 76 | 1015.6 |
| 20260507085021 | 49 | 0 | 0.0 | 0.0 | 0.00 | 0.00 | 0.00 | 77 | 1015.6 |
| 20260507084539 | 49 | 0 | 0.0 | 3.0 | 0.00 | 0.00 | 0.00 | 77 | 1015.8 |
| 20260507084020 | 49 | 0 | 0.0 | 3.0 | 0.00 | 0.00 | 0.00 | 77 | 1015.9 |
| 20260507083522 | 48 | 290 | 1.0 | 3.0 | 0.00 | 0.00 | 0.00 | 77 | 1016.0 |
| 20260507083038 | 48 | 296 | 1.0 | 4.0 | 0.00 | 0.00 | 0.00 | 77 | 1015.9 |
| 20260507082556 | 48 | 294 | 0.0 | 4.0 | 0.00 | 0.00 | 0.00 | 78 | 1015.8 |
| 20260507082023 | 48 | 0 | 1.0 | 4.0 | 0.00 | 0.00 | 0.00 | 78 | 1015.9 |
| 20260507081536 | 48 | 257 | 2.0 | 5.0 | 0.00 | 0.00 | 0.00 | 79 | 1015.9 |
| 20260507081021 | 48 | 247 | 3.0 | 6.0 | 0.00 | 0.00 | 0.00 | 79 | 1016.0 |
| 20260507080521 | 48 | 245 | 3.0 | 6.0 | 0.00 | 0.00 | 0.00 | 79 | 1016.0 |
| 20260507080038 | 48 | 238 | 3.0 | 6.0 | 0.00 | 0.00 | 0.00 | 80 | 1016.0 |
| 20260507075522 | 48 | 259 | 2.0 | 6.0 | 0.00 | 0.00 | 0.00 | 81 | 1016.1 |
| 20260507075021 | 48 | 267 | 1.0 | 3.0 | 0.00 | 0.00 | 0.00 | 81 | 1016.1 |
| 20260507074545 | 48 | 0 | 1.0 | 7.0 | 0.00 | 0.00 | 0.00 | 82 | 1016.1 |
| 20260507074021 | 48 | 290 | 2.0 | 7.0 | 0.00 | 0.00 | 0.00 | 82 | 1016.1 |
| 20260507073520 | 48 | 273 | 0.0 | 0.0 | 0.00 | 0.00 | 0.00 | 83 | 1016.2 |
| 20260507073043 | 47 | 0 | 0.0 | 0.0 | 0.00 | 0.00 | 0.00 | 83 | 1016.1 |
| 20260507072521 | 47 | 0 | 0.0 | 0.0 | 0.00 | 0.00 | 0.00 | 84 | 1016.1 |
| 20260507072020 | 47 | 0 | 0.0 | 0.0 | 0.00 | 0.00 | 0.00 | 84 | 1016.1 |
| 20260507071538 | 47 | 0 | 0.0 | 0.0 | 0.00 | 0.00 | 0.00 | 84 | 1016.1 |
| 20260507071021 | 47 | 0 | 0.0 | 0.0 | 0.00 | 0.00 | 0.00 | 84 | 1016.2 |
| 20260507070520 | 47 | 0 | 0.0 | 0.0 | 0.00 | 0.00 | 0.00 | 85 | 1016.2 |
| 20260507070041 | 47 | 0 | 0.0 | 0.0 | 0.00 | 0.00 | 0.00 | 85 | 1016.4 |
| 20260507065521 | 47 | 0 | 0.0 | 0.0 | 0.00 | 0.00 | 0.00 | 85 | 1016.4 |
| 20260507065021 | 47 | 0 | 0.0 | 0.0 | 0.00 | 0.00 | 0.00 | 85 | 1016.5 |
| 20260507064537 | 47 | 0 | 0.0 | 0.0 | 0.00 | 0.00 | 0.00 | 85 | 1016.5 |
| 20260507064022 | 47 | 0 | 0.0 | 0.0 | 0.00 | 0.00 | 0.00 | 85 | 1016.4 |
| 20260507063522 | 47 | 0 | 0.0 | 0.0 | 0.00 | 0.00 | 0.00 | 85 | 1016.5 |
| 20260507063051 | 47 | 0 | 0.0 | 0.0 | 0.00 | 0.00 | 0.00 | 85 | 1016.3 |
| 20260507062521 | 47 | 0 | 0.0 | 0.0 | 0.00 | 0.00 | 0.00 | 85 | 1016.4 |
| 20260507062021 | 47 | 0 | 0.0 | 0.0 | 0.00 | 0.00 | 0.00 | 85 | 1016.5 |
| 20260507061546 | 47 | 0 | 0.0 | 0.0 | 0.00 | 0.00 | 0.00 | 85 | 1016.3 |
| 20260507061020 | 47 | 0 | 0.0 | 0.0 | 0.00 | 0.00 | 0.00 | 84 | 1016.4 |
| 20260507060520 | 47 | 0 | 0.0 | 0.0 | 0.00 | 0.00 | 0.00 | 83 | 1016.6 |
| 20260507060045 | 47 | 0 | 0.0 | 0.0 | 0.00 | 0.00 | 0.00 | 83 | 1016.7 |
| 20260507055521 | 47 | 0 | 0.0 | 0.0 | 0.00 | 0.00 | 0.00 | 82 | 1016.7 |
| 20260507055020 | 47 | 0 | 0.0 | 0.0 | 0.00 | 0.00 | 0.00 | 82 | 1016.7 |
| 20260507054542 | 47 | 0 | 0.0 | 0.0 | 0.00 | 0.00 | 0.00 | 81 | 1016.7 |
| 20260507054020 | 47 | 0 | 0.0 | 0.0 | 0.00 | 0.00 | 0.00 | 80 | 1016.7 |
| 20260507053522 | 47 | 0 | 0.0 | 0.0 | 0.00 | 0.00 | 0.00 | 79 | 1016.7 |
| 20260507053039 | 47 | 0 | 0.0 | 0.0 | 0.00 | 0.00 | 0.00 | 79 | 1016.7 |
| 20260507052521 | 47 | 0 | 0.0 | 0.0 | 0.00 | 0.00 | 0.00 | 78 | 1016.8 |
| 20260507052112 | 47 | 0 | 0.0 | 0.0 | 0.00 | 0.00 | 0.00 | 78 | 1016.7 |
| 20260507051537 | 47 | 0 | 0.0 | 0.0 | 0.00 | 0.00 | 0.00 | 77 | 1016.6 |
| 20260507051021 | 47 | 0 | 0.0 | 0.0 | 0.00 | 0.00 | 0.00 | 77 | 1016.6 |
| 20260507050521 | 47 | 0 | 0.0 | 0.0 | 0.00 | 0.00 | 0.00 | 76 | 1016.5 |
| 20260507050037 | 47 | 0 | 0.0 | 0.0 | 0.00 | 0.00 | 0.00 | 73 | 1016.6 |
| 20260507045521 | 48 | 0 | 0.0 | 0.0 | 0.00 | 0.00 | 0.00 | 73 | 1016.6 |
| 20260507045021 | 48 | 0 | 0.0 | 0.0 | 0.00 | 0.00 | 0.00 | 73 | 1016.5 |
| 20260507044542 | 49 | 0 | 0.0 | 0.0 | 0.00 | 0.00 | 0.00 | 73 | 1016.6 |
| 20260507044020 | 49 | 0 | 0.0 | 0.0 | 0.00 | 0.00 | 0.00 | 74 | 1016.5 |
| 20260507043521 | 49 | 0 | 0.0 | 0.0 | 0.00 | 0.00 | 0.00 | 74 | 1016.5 |
| 20260507043039 | 50 | 0 | 0.0 | 0.0 | 0.00 | 0.00 | 0.00 | 73 | 1016.4 |
| 20260507042522 | 50 | 0 | 0.0 | 0.0 | 0.00 | 0.00 | 0.00 | 73 | 1016.4 |
| 20260507042020 | 50 | 0 | 0.0 | 0.0 | 0.00 | 0.00 | 0.00 | 72 | 1016.4 |
| 20260507041538 | 50 | 0 | 0.0 | 0.0 | 0.00 | 0.00 | 0.00 | 71 | 1016.5 |
| 20260507041021 | 51 | 0 | 0.0 | 0.0 | 0.00 | 0.00 | 0.00 | 70 | 1016.6 |
| 20260507040523 | 51 | 0 | 0.0 | 0.0 | 0.00 | 0.00 | 0.00 | 70 | 1016.5 |
| 20260507040037 | 51 | 0 | 0.0 | 0.0 | 0.00 | 0.00 | 0.00 | 68 | 1016.7 |
| 20260507035521 | 51 | 0 | 0.0 | 0.0 | 0.00 | 0.00 | 0.00 | 69 | 1016.7 |
| 20260507035023 | 52 | 0 | 0.0 | 0.0 | 0.00 | 0.00 | 0.00 | 68 | 1016.7 |
| 20260507034540 | 52 | 0 | 0.0 | 0.0 | 0.00 | 0.00 | 0.00 | 67 | 1016.6 |
| 20260507034022 | 52 | 0 | 0.0 | 0.0 | 0.00 | 0.00 | 0.00 | 67 | 1016.5 |
| 20260507033524 | 52 | 0 | 0.0 | 0.0 | 0.00 | 0.00 | 0.00 | 67 | 1016.6 |
| 20260507033035 | 52 | 0 | 0.0 | 0.0 | 0.00 | 0.00 | 0.00 | 67 | 1016.7 |
| 20260507032522 | 52 | 0 | 0.0 | 0.0 | 0.00 | 0.00 | 0.00 | 67 | 1016.5 |
| 20260507032021 | 52 | 0 | 0.0 | 0.0 | 0.00 | 0.00 | 0.00 | 66 | 1016.5 |
| 20260507031539 | 53 | 0 | 0.0 | 0.0 | 0.00 | 0.00 | 0.00 | 66 | 1016.5 |
| 20260507031022 | 53 | 0 | 0.0 | 0.0 | 0.00 | 0.00 | 0.00 | 66 | 1016.4 |
| 20260507030521 | 53 | 0 | 0.0 | 0.0 | 0.00 | 0.00 | 0.00 | 66 | 1016.4 |
| 20260507030042 | 53 | 0 | 0.0 | 0.0 | 0.00 | 0.00 | 0.00 | 65 | 1016.4 |
| 20260507025523 | 53 | 0 | 0.0 | 0.0 | 0.00 | 0.00 | 0.00 | 65 | 1016.3 |
| 20260507025021 | 53 | 0 | 0.0 | 0.0 | 0.00 | 0.00 | 0.00 | 66 | 1016.4 |
| 20260507024538 | 53 | 0 | 0.0 | 0.0 | 0.00 | 0.00 | 0.00 | 65 | 1016.4 |
| 20260507024024 | 53 | 0 | 0.0 | 1.0 | 0.00 | 0.00 | 0.00 | 65 | 1016.3 |
| 20260507023521 | 54 | 0 | 0.0 | 2.0 | 0.00 | 0.00 | 0.00 | 63 | 1016.2 |
| 20260507023037 | 54 | 0 | 0.0 | 2.0 | 0.00 | 0.00 | 0.00 | 62 | 1016.3 |
| 20260507022521 | 54 | 0 | 0.0 | 3.0 | 0.00 | 0.00 | 0.00 | 62 | 1016.3 |
| 20260507022023 | 54 | 360 | 1.0 | 3.0 | 0.00 | 0.00 | 0.00 | 62 | 1016.2 |
| 20260507021538 | 54 | 360 | 1.0 | 3.0 | 0.00 | 0.00 | 0.00 | 61 | 1016.1 |
| 20260507021021 | 54 | 339 | 1.0 | 3.0 | 0.00 | 0.00 | 0.00 | 60 | 1016.0 |
| 20260507020545 | 54 | 9 | 1.0 | 3.0 | 0.00 | 0.00 | 0.00 | 59 | 1015.9 |
| 20260507020043 | 55 | 9 | 1.0 | 3.0 | 0.00 | 0.00 | 0.00 | 59 | 1015.6 |
| 20260507015521 | 55 | 5 | 1.0 | 3.0 | 0.00 | 0.00 | 0.00 | 58 | 1015.6 |
| 20260507015021 | 55 | 5 | 1.0 | 2.0 | 0.00 | 0.00 | 0.00 | 58 | 1015.6 |
| 20260507014547 | 55 | 5 | 1.0 | 2.0 | 0.00 | 0.00 | 0.00 | 58 | 1015.5 |
| 20260507014021 | 55 | 5 | 1.0 | 3.0 | 0.00 | 0.00 | 0.00 | 57 | 1015.5 |
| 20260507013521 | 55 | 9 | 1.0 | 3.0 | 0.00 | 0.00 | 0.00 | 57 | 1015.4 |
| 20260507013048 | 56 | 9 | 1.0 | 4.0 | 0.00 | 0.00 | 0.00 | 57 | 1015.5 |
| 20260507012520 | 56 | 5 | 1.0 | 4.0 | 0.00 | 0.00 | 0.00 | 56 | 1015.4 |
| 20260507012021 | 56 | 5 | 2.0 | 4.0 | 0.00 | 0.00 | 0.00 | 56 | 1015.4 |
| 20260507011537 | 56 | 9 | 1.0 | 3.0 | 0.00 | 0.00 | 0.00 | 56 | 1015.2 |
| 20260507011021 | 56 | 19 | 2.0 | 3.0 | 0.00 | 0.00 | 0.00 | 56 | 1015.2 |
| 20260507010523 | 56 | 40 | 1.0 | 3.0 | 0.00 | 0.00 | 0.00 | 56 | 1015.3 |
| 20260507010051 | 56 | 0 | 0.0 | 4.0 | 0.00 | 0.00 | 0.00 | 55 | 1015.2 |
| 20260507005521 | 57 | 40 | 2.0 | 5.0 | 0.00 | 0.00 | 0.00 | 55 | 1015.2 |
| 20260507005020 | 57 | 42 | 3.0 | 8.0 | 0.00 | 0.00 | 0.00 | 54 | 1015.3 |
| 20260507004537 | 57 | 37 | 4.0 | 8.0 | 0.00 | 0.00 | 0.00 | 54 | 1015.3 |
| 20260507004021 | 57 | 32 | 5.0 | 9.0 | 0.00 | 0.00 | 0.00 | 53 | 1015.2 |
| 20260507003520 | 58 | 25 | 4.0 | 11.0 | 0.00 | 0.00 | 0.00 | 53 | 1015.2 |
| 20260507003039 | 58 | 50 | 5.0 | 11.0 | 0.00 | 0.00 | 0.00 | 51 | 1015.2 |
| 20260507002522 | 58 | 34 | 6.0 | 11.0 | 0.00 | 0.00 | 0.00 | 50 | 1015.2 |
| 20260507002021 | 59 | 65 | 7.0 | 10.0 | 0.00 | 0.00 | 0.00 | 49 | 1015.2 |
| 20260507001539 | 58 | 49 | 6.0 | 12.0 | 0.00 | 0.00 | 0.00 | 50 | 1015.2 |
| 20260507001023 | 58 | 41 | 5.0 | 13.0 | 0.00 | 0.00 | 0.00 | 51 | 1015.2 |
| 20260507000521 | 58 | 42 | 10.0 | 15.0 | 0.00 | 0.00 | 0.00 | 50 | 1015.1 |
| 20260507000039 | 59 | 32 | 10.0 | 15.0 | 0.00 | 0.00 | 0.00 | 49 | 1015.1 |
| 20260506235521 | 59 | 31 | 9.0 | 15.0 | 0.00 | 0.00 | 0.00 | 48 | 1015.0 |
| 20260506235020 | 60 | 31 | 7.0 | 15.0 | 0.00 | 0.00 | 0.00 | 46 | 1014.9 |
| 20260506234539 | 60 | 41 | 8.0 | 15.0 | 0.00 | 0.00 | 0.00 | 46 | 1014.8 |
| 20260506234021 | 59 | 360 | 6.0 | 12.0 | 0.00 | 0.00 | 0.00 | 48 | 1014.8 |
| 20260506233523 | 59 | 28 | 4.0 | 9.0 | 0.00 | 0.00 | 0.00 | 48 | 1014.8 |
| 20260506233054 | 59 | 5 | 5.0 | 11.0 | 0.00 | 0.00 | 0.00 | 48 | 1014.7 |
| 20260506232521 | 59 | 13 | 5.0 | 11.0 | 0.00 | 0.00 | 0.00 | 47 | 1014.7 |
| 20260506232021 | 59 | 360 | 8.0 | 14.0 | 0.00 | 0.00 | 0.00 | 48 | 1014.7 |
| 20260506231540 | 59 | 32 | 9.0 | 14.0 | 0.00 | 0.00 | 0.00 | 46 | 1014.8 |
| 20260506231022 | 60 | 48 | 8.0 | 16.0 | 0.00 | 0.00 | 0.00 | 45 | 1014.8 |
| 20260506230520 | 61 | 25 | 8.0 | 16.0 | 0.00 | 0.00 | 0.00 | 44 | 1014.8 |
| 20260506230036 | 62 | 25 | 7.0 | 15.0 | 0.00 | 0.00 | 0.00 | 45 | 1014.8 |
| 20260506225521 | 62 | 23 | 6.0 | 18.0 | 0.00 | 0.00 | 0.00 | 45 | 1014.8 |
| 20260506225021 | 62 | 22 | 4.0 | 18.0 | 0.00 | 0.00 | 0.00 | 42 | 1014.7 |
| 20260506224540 | 62 | 66 | 11.0 | 18.0 | 0.00 | 0.00 | 0.00 | 44 | 1014.6 |
| 20260506224022 | 62 | 54 | 10.0 | 16.0 | 0.00 | 0.00 | 0.00 | 44 | 1014.5 |
| 20260506223520 | 61 | 38 | 6.0 | 14.0 | 0.00 | 0.00 | 0.00 | 44 | 1014.4 |
| 20260506223038 | 61 | 56 | 10.0 | 17.0 | 0.00 | 0.00 | 0.00 | 44 | 1014.5 |
| 20260506222521 | 61 | 26 | 11.0 | 17.0 | 0.00 | 0.00 | 0.00 | 43 | 1014.5 |
| 20260506222025 | 61 | 41 | 9.0 | 14.0 | 0.00 | 0.00 | 0.00 | 45 | 1014.5 |
| 20260506221539 | 60 | 9 | 6.0 | 13.0 | 0.00 | 0.00 | 0.00 | 45 | 1014.5 |
| 20260506221022 | 60 | 17 | 6.0 | 13.0 | 0.00 | 0.00 | 0.00 | 42 | 1014.5 |
| 20260506220521 | 61 | 60 | 5.0 | 16.0 | 0.00 | 0.00 | 0.00 | 43 | 1014.5 |
| 20260506220036 | 61 | 71 | 7.0 | 17.0 | 0.00 | 0.00 | 0.00 | 42 | 1014.6 |
| 20260506215522 | 63 | 38 | 13.0 | 18.0 | 0.00 | 0.00 | 0.00 | 42 | 1014.7 |
| 20260506215021 | 63 | 53 | 10.0 | 18.0 | 0.00 | 0.00 | 0.00 | 46 | 1014.7 |
| 20260506214537 | 62 | 20 | 6.0 | 17.0 | 0.00 | 0.00 | 0.00 | 41 | 1014.7 |
| 20260506214023 | 63 | 77 | 8.0 | 17.0 | 0.00 | 0.00 | 0.00 | 42 | 1014.6 |
| 20260506213520 | 63 | 65 | 11.0 | 16.0 | 0.00 | 0.00 | 0.00 | 46 | 1014.7 |
| 20260506213036 | 62 | 344 | 7.0 | 14.0 | 0.00 | 0.00 | 0.00 | 43 | 1014.8 |
| 20260506212521 | 62 | 64 | 7.0 | 15.0 | 0.00 | 0.00 | 0.00 | 44 | 1014.7 |
| 20260506212021 | 62 | 323 | 8.0 | 15.0 | 0.00 | 0.00 | 0.00 | 42 | 1014.7 |
| 20260506211539 | 62 | 44 | 8.0 | 17.0 | 0.00 | 0.00 | 0.00 | 42 | 1014.8 |
| 20260506211021 | 62 | 360 | 5.0 | 17.0 | 0.00 | 0.00 | 0.00 | 42 | 1014.9 |
| 20260506210526 | 62 | 36 | 11.0 | 17.0 | 0.00 | 0.00 | 0.00 | 42 | 1014.9 |
| 20260506210038 | 62 | 5 | 11.0 | 20.0 | 0.00 | 0.00 | 0.00 | 41 | 1014.9 |
| 20260506205521 | 62 | 24 | 8.0 | 20.0 | 0.00 | 0.00 | 0.00 | 38 | 1015.0 |
| 20260506205024 | 62 | 67 | 13.0 | 20.0 | 0.00 | 0.00 | 0.00 | 43 | 1015.1 |
| 20260506204539 | 61 | 14 | 8.0 | 16.0 | 0.00 | 0.00 | 0.00 | 43 | 1015.2 |
| 20260506204025 | 62 | 26 | 9.0 | 16.0 | 0.00 | 0.00 | 0.00 | 43 | 1015.3 |
| 20260506203521 | 62 | 40 | 11.0 | 17.0 | 0.00 | 0.00 | 0.00 | 42 | 1015.3 |
| 20260506203037 | 61 | 55 | 6.0 | 17.0 | 0.00 | 0.00 | 0.00 | 44 | 1015.4 |
| 20260506202521 | 62 | 51 | 7.0 | 17.0 | 0.00 | 0.00 | 0.00 | 41 | 1015.5 |
| 20260506202021 | 62 | 32 | 8.0 | 16.0 | 0.00 | 0.00 | 0.00 | 41 | 1015.6 |
| 20260506201540 | 62 | 318 | 8.0 | 18.0 | 0.00 | 0.00 | 0.00 | 41 | 1015.5 |
| 20260506201024 | 62 | 45 | 10.0 | 18.0 | 0.00 | 0.00 | 0.00 | 41 | 1015.7 |
| 20260506200522 | 62 | 41 | 11.0 | 17.0 | 0.00 | 0.00 | 0.00 | 42 | 1015.7 |
| 20260506200042 | 62 | 36 | 7.0 | 15.0 | 0.00 | 0.00 | 0.00 | 44 | 1015.8 |
| 20260506195521 | 61 | 76 | 6.0 | 20.0 | 0.00 | 0.00 | 0.00 | 43 | 1015.8 |
| 20260506195022 | 62 | 53 | 12.0 | 20.0 | 0.00 | 0.00 | 0.00 | 44 | 1016.0 |
| 20260506194544 | 61 | 352 | 5.0 | 15.0 | 0.00 | 0.00 | 0.00 | 44 | 1015.9 |
| 20260506194022 | 61 | 49 | 9.0 | 18.0 | 0.00 | 0.00 | 0.00 | 44 | 1016.0 |
| 20260506193521 | 62 | 100 | 10.0 | 19.0 | 0.00 | 0.00 | 0.00 | 40 | 1016.0 |
| 20260506193034 | 62 | 55 | 11.0 | 19.0 | 0.00 | 0.00 | 0.00 | 44 | 1015.9 |
| 20260506192524 | 61 | 327 | 12.0 | 19.0 | 0.00 | 0.00 | 0.00 | 44 | 1015.8 |
| 20260506192021 | 62 | 44 | 11.0 | 20.0 | 0.00 | 0.00 | 0.00 | 43 | 1015.9 |
| 20260506191539 | 62 | 57 | 12.0 | 20.0 | 0.00 | 0.00 | 0.00 | 42 | 1015.9 |
| 20260506191022 | 61 | 70 | 9.0 | 20.0 | 0.00 | 0.00 | 0.00 | 41 | 1016.0 |
| 20260506190525 | 61 | 56 | 10.0 | 20.0 | 0.00 | 0.00 | 0.00 | 42 | 1016.0 |
| 20260506190037 | 61 | 50 | 14.0 | 20.0 | 0.00 | 0.00 | 0.00 | 44 | 1016.1 |
| 20260506185521 | 61 | 69 | 10.0 | 21.0 | 0.00 | 0.00 | 0.00 | 49 | 1015.9 |
| 20260506185022 | 61 | 63 | 11.0 | 21.0 | 0.00 | 0.00 | 0.00 | 43 | 1016.0 |
| 20260506184537 | 61 | 59 | 10.0 | 20.0 | 0.00 | 0.00 | 0.00 | 48 | 1016.1 |
| 20260506184021 | 60 | 59 | 14.0 | 20.0 | 0.00 | 0.00 | 0.00 | 44 | 1016.2 |
| 20260506183521 | 60 | 76 | 11.0 | 22.0 | 0.00 | 0.00 | 0.00 | 47 | 1016.2 |
| 20260506183039 | 60 | 34 | 15.0 | 22.0 | 0.00 | 0.00 | 0.00 | 43 | 1016.4 |
| 20260506182520 | 60 | 32 | 11.0 | 23.0 | 0.00 | 0.00 | 0.00 | 46 | 1016.4 |
| 20260506182020 | 59 | 53 | 11.0 | 23.0 | 0.00 | 0.00 | 0.00 | 45 | 1016.5 |
| 20260506181537 | 59 | 36 | 14.0 | 21.0 | 0.00 | 0.00 | 0.00 | 43 | 1016.5 |
| 20260506181023 | 60 | 15 | 11.0 | 24.0 | 0.00 | 0.00 | 0.00 | 44 | 1016.6 |
| 20260506180522 | 60 | 63 | 13.0 | 24.0 | 0.00 | 0.00 | 0.00 | 48 | 1016.7 |
| 20260506180042 | 59 | 53 | 12.0 | 24.0 | 0.00 | 0.00 | 0.00 | 46 | 1016.8 |
| 20260506175523 | 60 | 39 | 14.0 | 22.0 | 0.00 | 0.00 | 0.00 | 46 | 1016.7 |
| 20260506175021 | 60 | 46 | 14.0 | 22.0 | 0.00 | 0.00 | 0.00 | 48 | 1016.8 |
| 20260506174537 | 59 | 43 | 11.0 | 21.0 | 0.00 | 0.00 | 0.00 | 50 | 1017.0 |
| 20260506174021 | 59 | 55 | 13.0 | 21.0 | 0.00 | 0.00 | 0.00 | 50 | 1017.2 |
| 20260506173521 | 59 | 16 | 14.0 | 21.0 | 0.00 | 0.00 | 0.00 | 50 | 1017.0 |
| 20260506173044 | 59 | 32 | 11.0 | 18.0 | 0.00 | 0.00 | 0.00 | 51 | 1016.9 |
| 20260506172521 | 58 | 35 | 10.0 | 19.0 | 0.00 | 0.00 | 0.00 | 53 | 1016.9 |
| 20260506172021 | 58 | 21 | 9.0 | 19.0 | 0.00 | 0.00 | 0.00 | 54 | 1017.0 |
| 20260506171540 | 57 | 46 | 11.0 | 19.0 | 0.00 | 0.00 | 0.00 | 54 | 1016.9 |
| 20260506171023 | 57 | 23 | 12.0 | 20.0 | 0.00 | 0.00 | 0.00 | 56 | 1017.0 |
| 20260506170521 | 57 | 36 | 13.0 | 20.0 | 0.00 | 0.00 | 0.00 | 58 | 1017.0 |
| 20260506170036 | 56 | 329 | 11.0 | 22.0 | 0.00 | 0.00 | 0.00 | 58 | 1017.0 |
| 20260506165522 | 56 | 342 | 11.0 | 22.0 | 0.00 | 0.00 | 0.00 | 58 | 1017.1 |
| 20260506165021 | 57 | 55 | 11.0 | 19.0 | 0.00 | 0.00 | 0.00 | 59 | 1017.1 |
| 20260506164552 | 57 | 24 | 12.0 | 18.0 | 0.00 | 0.00 | 0.00 | 58 | 1017.1 |
| 20260506164022 | 57 | 18 | 10.0 | 18.0 | 0.00 | 0.00 | 0.00 | 60 | 1017.0 |
| 20260506163521 | 57 | 55 | 11.0 | 18.0 | 0.00 | 0.00 | 0.00 | 58 | 1016.7 |
| 20260506163042 | 56 | 14 | 9.0 | 18.0 | 0.00 | 0.00 | 0.00 | 62 | 1016.9 |
| 20260506162521 | 55 | 57 | 12.0 | 21.0 | 0.00 | 0.00 | 0.00 | 63 | 1017.0 |
| 20260506162021 | 55 | 49 | 10.0 | 22.0 | 0.00 | 0.00 | 0.00 | 65 | 1017.0 |
| 20260506161538 | 54 | 32 | 12.0 | 22.0 | 0.00 | 0.00 | 0.00 | 65 | 1016.7 |
| 20260506161022 | 55 | 355 | 10.0 | 17.0 | 0.00 | 0.00 | 0.00 | 65 | 1017.1 |
| 20260506160524 | 54 | 24 | 11.0 | 18.0 | 0.00 | 0.00 | 0.00 | 68 | 1017.0 |
| 20260506160046 | 53 | 9 | 12.0 | 18.0 | 0.00 | 0.00 | 0.00 | 70 | 1017.2 |
| 20260506155524 | 52 | 28 | 12.0 | 18.0 | 0.00 | 0.00 | 0.00 | 69 | 1017.0 |
| 20260506155021 | 52 | 11 | 9.0 | 17.0 | 0.00 | 0.00 | 0.00 | 71 | 1016.9 |
| 20260506154548 | 52 | 15 | 12.0 | 18.0 | 0.00 | 0.00 | 0.00 | 70 | 1016.9 |
| 20260506154021 | 53 | 38 | 12.0 | 18.0 | 0.00 | 0.00 | 0.00 | 69 | 1017.0 |
| 20260506153523 | 53 | 360 | 8.0 | 19.0 | 0.00 | 0.00 | 0.00 | 72 | 1016.8 |
| 20260506153038 | 53 | 5 | 10.0 | 19.0 | 0.00 | 0.00 | 0.00 | 69 | 1016.7 |
| 20260506152522 | 53 | 360 | 11.0 | 19.0 | 0.00 | 0.00 | 0.00 | 71 | 1016.7 |
| 20260506152023 | 53 | 44 | 14.0 | 18.0 | 0.00 | 0.00 | 0.00 | 69 | 1016.7 |
| 20260506151539 | 53 | 30 | 12.0 | 18.0 | 0.00 | 0.00 | 0.00 | 70 | 1016.9 |
| 20260506151021 | 53 | 35 | 11.0 | 19.0 | 0.00 | 0.00 | 0.00 | 73 | 1016.9 |
| 20260506150522 | 52 | 35 | 10.0 | 19.0 | 0.00 | 0.00 | 0.00 | 75 | 1016.8 |
| 20260506150038 | 51 | 10 | 8.0 | 14.0 | 0.00 | 0.00 | 0.00 | 76 | 1016.7 |
| 20260506145524 | 51 | 41 | 8.0 | 13.0 | 0.00 | 0.00 | 0.00 | 75 | 1016.5 |
| 20260506145022 | 51 | 5 | 5.0 | 14.0 | 0.00 | 0.00 | 0.00 | 75 | 1016.7 |
| 20260506144537 | 51 | 11 | 8.0 | 14.0 | 0.00 | 0.00 | 0.00 | 75 | 1016.8 |